^^

..:: Storico WU ::..




Lo storico viene creato da WUnderground con i dati che la stazione Meteomincio invia al loro server. L' aggiornamento viene fatto ogni 5 minuti circa, tuttavia possono esserci intervalli pił ampi a causa di errori, interruzioni di servizio o problemi nell' invio tramite FTP.


Storico stazione MeteoMincio
Giorno Sommario per Settembre 28, 2022 Unità:  Inglese    Metrico   Entrambi
Giorno Settimana Mese Anno
  Max: Min: Media:
Temperatura: 71.6 °F 53.6 °F 61.5 °F
Dew Point: 59 °F 50 °F 54.3 °F
Umidità: 90% 60% 78%
Velocità vento: 11.2mph 1.2mph 5.1mph
Raffica: 14.9mph - -
Direzione- - East
Pressione: 29.6 in 29.5 in -
Precipitazioni: 0 in    
 
 
Tabulato Dati per Settembre 28, 2022
Ora Temperatura Dew Point Pressione Direzione Velocità vento Raffica Umidità Intensità pioggia (oraria) Info solare Situazione
00:04 59 °F 55.4 °F 29.6 in East 3.1 mph 6.2 mph 86% 0 in 0.00 W/m2 unknown
00:09 59 °F 55.4 °F 29.6 in ENE 3.7 mph 5 mph 87% 0 in 0.00 W/m2 unknown
00:14 59 °F 55.4 °F 29.6 in East 4.3 mph 6.2 mph 87% 0 in 0.00 W/m2 unknown
00:19 59 °F 55.4 °F 29.6 in East 3.1 mph 6.2 mph 88% 0 in 0.00 W/m2 unknown
00:24 59 °F 55.4 °F 29.6 in East 3.1 mph 5 mph 88% 0 in 0.00 W/m2 unknown
00:29 59 °F 55.4 °F 29.6 in ESE 3.7 mph 5 mph 89% 0 in 0.00 W/m2 unknown
00:34 59 °F 55.4 °F 29.6 in East 4.3 mph 5 mph 89% 0 in 0.00 W/m2 unknown
00:39 59 °F 55.4 °F 29.6 in East 3.7 mph 5 mph 89% 0 in 0.00 W/m2 unknown
00:44 59 °F 55.4 °F 29.6 in East 4.3 mph 6.2 mph 89% 0 in 0.00 W/m2 unknown
00:49 57.2 °F 55.4 °F 29.6 in East 4.3 mph 6.2 mph 89% 0 in 0.00 W/m2 unknown
00:54 57.2 °F 55.4 °F 29.6 in East 3.1 mph 6.2 mph 89% 0 in 0.00 W/m2 unknown
00:59 57.2 °F 55.4 °F 29.6 in East 3.1 mph 5 mph 89% 0 in 0.00 W/m2 unknown
01:04 57.2 °F 55.4 °F 29.6 in East 3.1 mph 5 mph 89% 0 in 0.00 W/m2 unknown
01:09 57.2 °F 55.4 °F 29.6 in East 4.3 mph 6.8 mph 89% 0 in 0.00 W/m2 unknown
01:14 57.2 °F 55.4 °F 29.6 in East 4.3 mph 6.8 mph 89% 0 in 0.00 W/m2 unknown
01:19 57.2 °F 53.6 °F 29.6 in East 3.7 mph 6.8 mph 88% 0 in 0.00 W/m2 unknown
01:24 57.2 °F 53.6 °F 29.6 in East 3.7 mph 6.2 mph 88% 0 in 0.00 W/m2 unknown
01:29 57.2 °F 53.6 °F 29.6 in ESE 3.1 mph 6.2 mph 88% 0 in 0.00 W/m2 unknown
01:34 57.2 °F 53.6 °F 29.6 in ESE 3.1 mph 5 mph 88% 0 in 0.00 W/m2 unknown
01:39 57.2 °F 53.6 °F 29.6 in East 3.1 mph 5 mph 89% 0 in 0.00 W/m2 unknown
01:44 57.2 °F 53.6 °F 29.6 in East 3.1 mph 5 mph 89% 0 in 0.00 W/m2 unknown
01:49 57.2 °F 53.6 °F 29.6 in ENE 3.1 mph 5 mph 89% 0 in 0.00 W/m2 unknown
01:54 57.2 °F 53.6 °F 29.6 in East 2.5 mph 3.7 mph 89% 0 in 0.00 W/m2 unknown
01:59 57.2 °F 53.6 °F 29.6 in East 2.5 mph 3.7 mph 89% 0 in 0.00 W/m2 unknown
02:04 57.2 °F 53.6 °F 29.6 in East 3.1 mph 5 mph 90% 0 in 0.00 W/m2 unknown
02:09 57.2 °F 53.6 °F 29.6 in East 3.1 mph 5 mph 90% 0 in 0.00 W/m2 unknown
02:14 57.2 °F 53.6 °F 29.6 in East 2.5 mph 3.7 mph 89% 0 in 0.00 W/m2 unknown
02:19 57.2 °F 53.6 °F 29.6 in ENE 3.1 mph 5 mph 89% 0 in 0.00 W/m2 unknown
02:24 57.2 °F 53.6 °F 29.6 in East 3.1 mph 5 mph 89% 0 in 0.00 W/m2 unknown
02:29 57.2 °F 53.6 °F 29.6 in ESE 4.3 mph 5 mph 89% 0 in 0.00 W/m2 unknown
02:34 57.2 °F 53.6 °F 29.6 in East 4.3 mph 5 mph 88% 0 in 0.00 W/m2 unknown
02:39 57.2 °F 53.6 °F 29.6 in East 3.1 mph 5 mph 88% 0 in 0.00 W/m2 unknown
02:44 57.2 °F 53.6 °F 29.6 in East 2.5 mph 3.7 mph 88% 0 in 0.00 W/m2 unknown
02:49 57.2 °F 53.6 °F 29.6 in East 2.5 mph 5 mph 89% 0 in 0.00 W/m2 unknown
02:54 57.2 °F 53.6 °F 29.6 in East 2.5 mph 5 mph 89% 0 in 0.00 W/m2 unknown
02:59 57.2 °F 53.6 °F 29.6 in ENE 3.1 mph 5 mph 89% 0 in 0.00 W/m2 unknown
03:04 57.2 °F 53.6 °F 29.6 in East 3.1 mph 5 mph 88% 0 in 0.00 W/m2 unknown
03:09 55.4 °F 53.6 °F 29.6 in East 2.5 mph 5 mph 88% 0 in 0.00 W/m2 unknown
03:14 55.4 °F 51.8 °F 29.6 in East 3.1 mph 5 mph 88% 0 in 0.00 W/m2 unknown
03:19 55.4 °F 51.8 °F 29.6 in East 2.5 mph 5 mph 88% 0 in 0.00 W/m2 unknown
03:24 55.4 °F 51.8 °F 29.6 in ESE 3.1 mph 5 mph 88% 0 in 0.00 W/m2 unknown
03:29 55.4 °F 51.8 °F 29.6 in East 3.7 mph 5 mph 88% 0 in 0.00 W/m2 unknown
03:34 55.4 °F 51.8 °F 29.6 in East 3.7 mph 6.8 mph 88% 0 in 0.00 W/m2 unknown
03:39 55.4 °F 51.8 °F 29.6 in East 3.1 mph 6.8 mph 88% 0 in 0.00 W/m2 unknown
03:44 55.4 °F 51.8 °F 29.6 in East 3.1 mph 6.8 mph 88% 0 in 0.00 W/m2 unknown
03:49 55.4 °F 51.8 °F 29.6 in ENE 3.1 mph 6.8 mph 88% 0 in 0.00 W/m2 unknown
03:54 55.4 °F 51.8 °F 29.6 in East 3.7 mph 6.2 mph 88% 0 in 0.00 W/m2 unknown
03:59 55.4 °F 51.8 °F 29.6 in ENE 3.7 mph 6.2 mph 88% 0 in 0.00 W/m2 unknown
04:04 55.4 °F 51.8 °F 29.6 in ENE 3.7 mph 6.2 mph 88% 0 in 0.00 W/m2 unknown
04:09 55.4 °F 51.8 °F 29.6 in ENE 3.7 mph 5 mph 88% 0 in 0.00 W/m2 unknown
04:14 55.4 °F 51.8 °F 29.6 in East 4.3 mph 5 mph 88% 0 in 0.00 W/m2 unknown
04:16 55.4 °F 51.8 °F 29.6 in East 3.1 mph 5 mph 88% 0 in 0.00 W/m2 unknown
04:24 55.4 °F 51.8 °F 29.6 in East 3.1 mph 5 mph 88% 0 in 0.00 W/m2 unknown
04:29 55.4 °F 51.8 °F 29.6 in East 3.1 mph 5 mph 88% 0 in 0.00 W/m2 unknown
04:33 55.4 °F 51.8 °F 29.6 in ENE 3.1 mph 6.2 mph 88% 0 in 0.00 W/m2 unknown
04:39 55.4 °F 51.8 °F 29.6 in ENE 3.1 mph 6.2 mph 88% 0 in 0.00 W/m2 unknown
04:44 55.4 °F 51.8 °F 29.6 in ENE 3.1 mph 6.2 mph 87% 0 in 0.00 W/m2 unknown
04:48 55.4 °F 51.8 °F 29.6 in ENE 3.7 mph 6.8 mph 87% 0 in 0.00 W/m2 unknown
04:53 55.4 °F 51.8 °F 29.6 in ENE 4.3 mph 6.8 mph 87% 0 in 0.00 W/m2 unknown
04:59 55.4 °F 51.8 °F 29.6 in ENE 4.3 mph 6.8 mph 87% 0 in 0.00 W/m2 unknown
05:04 55.4 °F 51.8 °F 29.5 in ENE 5 mph 6.2 mph 87% 0 in 0.00 W/m2 unknown
05:08 55.4 °F 51.8 °F 29.5 in ENE 4.3 mph 6.2 mph 87% 0 in 0.00 W/m2 unknown
05:14 55.4 °F 51.8 °F 29.5 in ENE 3.7 mph 6.2 mph 87% 0 in 0.00 W/m2 unknown
05:19 55.4 °F 51.8 °F 29.5 in East 3.7 mph 6.2 mph 87% 0 in 0.00 W/m2 unknown
05:24 55.4 °F 51.8 °F 29.6 in East 3.1 mph 5 mph 87% 0 in 0.00 W/m2 unknown
05:29 55.4 °F 51.8 °F 29.6 in ENE 3.1 mph 5 mph 88% 0 in 0.00 W/m2 unknown
05:34 55.4 °F 51.8 °F 29.5 in ENE 3.1 mph 5 mph 88% 0 in 0.00 W/m2 unknown
05:39 55.4 °F 51.8 °F 29.5 in ENE 3.1 mph 5 mph 88% 0 in 0.00 W/m2 unknown
05:44 55.4 °F 51.8 °F 29.6 in ENE 2.5 mph 3.7 mph 88% 0 in 0.00 W/m2 unknown
05:49 55.4 °F 51.8 °F 29.6 in ENE 3.1 mph 5 mph 88% 0 in 0.00 W/m2 unknown
05:54 55.4 °F 51.8 °F 29.6 in East 3.1 mph 5 mph 88% 0 in 0.00 W/m2 unknown
05:59 55.4 °F 51.8 °F 29.6 in ENE 2.5 mph 5 mph 88% 0 in 0.00 W/m2 unknown
06:04 53.6 °F 51.8 °F 29.6 in East 2.5 mph 5 mph 88% 0 in 0.00 W/m2 unknown
06:09 53.6 °F 51.8 °F 29.6 in East 3.1 mph 6.2 mph 88% 0 in 0.00 W/m2 unknown
06:14 53.6 °F 51.8 °F 29.6 in East 3.7 mph 6.8 mph 88% 0 in 0.00 W/m2 unknown
06:19 53.6 °F 51.8 °F 29.6 in ENE 4.3 mph 6.8 mph 88% 0 in 0.00 W/m2 unknown
06:24 53.6 °F 51.8 °F 29.6 in East 4.3 mph 6.8 mph 88% 0 in 0.00 W/m2 unknown
06:29 53.6 °F 50 °F 29.6 in ENE 5 mph 6.2 mph 88% 0 in 0.00 W/m2 unknown
06:34 53.6 °F 50 °F 29.6 in East 4.3 mph 6.2 mph 88% 0 in 0.00 W/m2 unknown
06:39 53.6 °F 51.8 °F 29.5 in East 3.7 mph 5 mph 89% 0 in 0.00 W/m2 unknown
06:44 53.6 °F 51.8 °F 29.5 in East 3.7 mph 6.2 mph 89% 0 in 0.00 W/m2 unknown
06:49 53.6 °F 51.8 °F 29.5 in East 3.1 mph 6.2 mph 89% 0 in 0.00 W/m2 unknown
06:54 53.6 °F 51.8 °F 29.5 in East 4.3 mph 6.8 mph 89% 0 in 0.00 W/m2 unknown
06:59 53.6 °F 51.8 °F 29.5 in East 5 mph 8.1 mph 89% 0 in 0.00 W/m2 unknown
07:04 55.4 °F 51.8 °F 29.5 in East 5 mph 8.1 mph 89% 0 in 0.00 W/m2 unknown
07:09 55.4 °F 51.8 °F 29.5 in East 4.3 mph 8.1 mph 89% 0 in 0.00 W/m2 unknown
07:14 55.4 °F 51.8 °F 29.5 in ENE 3.7 mph 6.2 mph 89% 0 in 0.00 W/m2 unknown
07:19 55.4 °F 51.8 °F 29.6 in ENE 3.7 mph 6.2 mph 88% 0 in 7.00 W/m2 unknown
07:24 55.4 °F 51.8 °F 29.6 in ENE 3.7 mph 6.2 mph 88% 0 in 9.00 W/m2 unknown
07:29 55.4 °F 51.8 °F 29.6 in ENE 5 mph 6.8 mph 88% 0 in 12.00 W/m2 unknown
07:34 55.4 °F 51.8 °F 29.6 in East 5 mph 6.8 mph 88% 0 in 16.00 W/m2 unknown
07:39 55.4 °F 51.8 °F 29.6 in ENE 5 mph 6.8 mph 88% 0 in 23.00 W/m2 unknown
07:44 55.4 °F 51.8 °F 29.6 in ENE 4.3 mph 6.2 mph 88% 0 in 30.00 W/m2 unknown
07:49 55.4 °F 51.8 °F 29.6 in ENE 3.7 mph 6.2 mph 87% 0 in 33.00 W/m2 unknown
07:54 55.4 °F 51.8 °F 29.6 in East 5 mph 9.3 mph 87% 0 in 33.00 W/m2 unknown
07:59 55.4 °F 51.8 °F 29.6 in ENE 6.2 mph 9.3 mph 87% 0 in 30.00 W/m2 unknown
08:04 55.4 °F 51.8 °F 29.6 in ENE 6.2 mph 9.3 mph 87% 0 in 25.00 W/m2 unknown
08:09 55.4 °F 51.8 °F 29.6 in ENE 5 mph 8.1 mph 86% 0 in 32.00 W/m2 unknown
08:14 55.4 °F 51.8 °F 29.5 in ENE 5.6 mph 8.1 mph 86% 0 in 42.00 W/m2 unknown
08:19 55.4 °F 51.8 °F 29.5 in ENE 6.2 mph 9.3 mph 86% 0 in 53.00 W/m2 unknown
08:24 55.4 °F 51.8 °F 29.5 in ENE 6.2 mph 9.3 mph 86% 0 in 54.00 W/m2 unknown
08:29 55.4 °F 51.8 °F 29.5 in East 6.2 mph 9.3 mph 86% 0 in 65.00 W/m2 unknown
08:34 55.4 °F 51.8 °F 29.5 in ENE 6.8 mph 9.3 mph 85% 0 in 74.00 W/m2 unknown
08:39 57.2 °F 51.8 °F 29.5 in ENE 7.5 mph 9.3 mph 85% 0 in 77.00 W/m2 unknown
08:44 57.2 °F 51.8 °F 29.5 in ENE 7.5 mph 9.3 mph 85% 0 in 74.00 W/m2 unknown
08:49 57.2 °F 51.8 °F 29.5 in East 4.3 mph 8.1 mph 84% 0 in 84.00 W/m2 unknown
08:54 57.2 °F 51.8 °F 29.5 in East 5.6 mph 8.1 mph 83% 0 in 111.00 W/m2 unknown
08:59 57.2 °F 51.8 °F 29.5 in East 6.2 mph 8.1 mph 83% 0 in 111.00 W/m2 unknown
09:04 57.2 °F 51.8 °F 29.5 in ENE 6.2 mph 9.3 mph 82% 0 in 113.00 W/m2 unknown
09:09 57.2 °F 51.8 °F 29.5 in East 7.5 mph 11.8 mph 81% 0 in 102.00 W/m2 unknown
09:14 57.2 °F 51.8 °F 29.5 in ENE 8.1 mph 11.8 mph 81% 0 in 125.00 W/m2 unknown
09:19 59 °F 51.8 °F 29.5 in ENE 6.8 mph 11.8 mph 80% 0 in 178.00 W/m2 unknown
09:24 59 °F 51.8 °F 29.5 in East 6.2 mph 8.1 mph 80% 0 in 179.00 W/m2 unknown
09:29 59 °F 51.8 °F 29.5 in ENE 5.6 mph 8.1 mph 80% 0 in 174.00 W/m2 unknown
09:34 59 °F 51.8 °F 29.5 in ENE 6.2 mph 8.1 mph 79% 0 in 162.00 W/m2 unknown
09:39 59 °F 51.8 °F 29.5 in ENE 6.2 mph 8.1 mph 78% 0 in 172.00 W/m2 unknown
09:44 59 °F 53.6 °F 29.5 in East 6.8 mph 9.3 mph 78% 0 in 178.00 W/m2 unknown
09:49 60.8 °F 53.6 °F 29.5 in East 6.2 mph 9.3 mph 78% 0 in 176.00 W/m2 unknown
09:54 60.8 °F 53.6 °F 29.5 in East 7.5 mph 13 mph 78% 0 in 185.00 W/m2 unknown
09:59 60.8 °F 53.6 °F 29.6 in East 6.8 mph 13 mph 77% 0 in 185.00 W/m2 unknown
10:04 60.8 °F 53.6 °F 29.6 in ENE 6.2 mph 11.8 mph 77% 0 in 193.00 W/m2 unknown
10:09 60.8 °F 53.6 °F 29.6 in East 9.3 mph 13 mph 76% 0 in 214.00 W/m2 unknown
10:14 60.8 °F 53.6 °F 29.5 in ENE 9.9 mph 14.9 mph 76% 0 in 244.00 W/m2 unknown
10:19 60.8 °F 53.6 °F 29.5 in ENE 6.8 mph 14.9 mph 76% 0 in 271.00 W/m2 unknown
10:24 60.8 °F 53.6 °F 29.5 in East 6.2 mph 10.6 mph 76% 0 in 236.00 W/m2 unknown
10:29 60.8 °F 53.6 °F 29.6 in ENE 8.1 mph 14.3 mph 75% 0 in 232.00 W/m2 unknown
10:34 62.6 °F 53.6 °F 29.6 in ENE 8.1 mph 14.3 mph 75% 0 in 262.00 W/m2 unknown
10:39 62.6 °F 53.6 °F 29.6 in ENE 6.8 mph 14.3 mph 75% 0 in 301.00 W/m2 unknown
10:44 62.6 °F 53.6 °F 29.6 in ENE 6.8 mph 11.8 mph 74% 0 in 350.00 W/m2 unknown
10:49 62.6 °F 53.6 °F 29.6 in East 6.8 mph 14.3 mph 72% 0 in 396.00 W/m2 unknown
10:54 62.6 °F 53.6 °F 29.6 in East 9.3 mph 14.3 mph 72% 0 in 420.00 W/m2 unknown
10:59 64.4 °F 53.6 °F 29.6 in East 8.7 mph 14.3 mph 71% 0 in 455.00 W/m2 unknown
11:03 64.4 °F 53.6 °F 29.6 in East 9.3 mph 13 mph 71% 0 in 462.00 W/m2 unknown
11:08 64.4 °F 53.6 °F 29.6 in ESE 8.7 mph 13 mph 71% 0 in 461.00 W/m2 unknown
11:14 64.4 °F 55.4 °F 29.6 in ENE 8.1 mph 10.6 mph 71% 0 in 568.00 W/m2 unknown
11:19 64.4 °F 55.4 °F 29.6 in East 9.3 mph 14.3 mph 70% 0 in 568.00 W/m2 unknown
11:24 64.4 °F 55.4 °F 29.6 in ENE 11.2 mph 14.9 mph 70% 0 in 501.00 W/m2 unknown
11:29 66.2 °F 55.4 °F 29.5 in East 10.6 mph 14.9 mph 70% 0 in 596.00 W/m2 unknown
11:34 66.2 °F 55.4 °F 29.5 in East 9.9 mph 14.9 mph 70% 0 in 610.00 W/m2 unknown
11:39 66.2 °F 55.4 °F 29.5 in East 7.5 mph 11.8 mph 70% 0 in 592.00 W/m2 unknown
11:44 66.2 °F 55.4 °F 29.5 in East 8.1 mph 11.8 mph 69% 0 in 552.00 W/m2 unknown
11:49 66.2 °F 55.4 °F 29.5 in East 8.7 mph 11.8 mph 69% 0 in 482.00 W/m2 unknown
11:54 66.2 °F 55.4 °F 29.5 in East 8.1 mph 11.8 mph 70% 0 in 538.00 W/m2 unknown
11:59 66.2 °F 57.2 °F 29.5 in East 8.1 mph 13 mph 70% 0 in 624.00 W/m2 unknown
12:04 66.2 °F 55.4 °F 29.5 in East 9.9 mph 13 mph 69% 0 in 387.00 W/m2 unknown
12:09 66.2 °F 55.4 °F 29.5 in ENE 8.7 mph 13 mph 70% 0 in 464.00 W/m2 unknown
12:14 66.2 °F 55.4 °F 29.5 in East 8.7 mph 11.8 mph 70% 0 in 557.00 W/m2 unknown
12:19 66.2 °F 55.4 °F 29.5 in ESE 8.7 mph 11.8 mph 69% 0 in 575.00 W/m2 unknown
12:24 68 °F 57.2 °F 29.5 in East 8.1 mph 11.8 mph 69% 0 in 575.00 W/m2 unknown
12:29 68 °F 57.2 °F 29.5 in ENE 6.2 mph 9.3 mph 69% 0 in 686.00 W/m2 unknown
12:34 68 °F 57.2 °F 29.5 in East 8.1 mph 11.8 mph 69% 0 in 686.00 W/m2 unknown
12:39 68 °F 57.2 °F 29.5 in ENE 8.7 mph 13 mph 67% 0 in 510.00 W/m2 unknown
12:44 68 °F 57.2 °F 29.5 in East 8.1 mph 13 mph 68% 0 in 541.00 W/m2 unknown
12:49 68 °F 57.2 °F 29.5 in East 6.2 mph 8.7 mph 67% 0 in 726.00 W/m2 unknown
12:54 68 °F 57.2 °F 29.5 in East 6.8 mph 9.3 mph 67% 0 in 726.00 W/m2 unknown
12:59 68 °F 57.2 °F 29.5 in East 6.2 mph 9.3 mph 67% 0 in 598.00 W/m2 unknown
13:04 68 °F 57.2 °F 29.5 in ESE 6.2 mph 8.7 mph 67% 0 in 598.00 W/m2 unknown
13:09 68 °F 57.2 °F 29.5 in ESE 6.8 mph 11.8 mph 67% 0 in 650.00 W/m2 unknown
13:14 68 °F 57.2 °F 29.5 in East 8.1 mph 11.8 mph 67% 0 in 650.00 W/m2 unknown
13:19 68 °F 57.2 °F 29.5 in East 8.7 mph 11.8 mph 67% 0 in 628.00 W/m2 unknown
13:24 68 °F 57.2 °F 29.5 in East 8.1 mph 11.8 mph 67% 0 in 522.00 W/m2 unknown
13:29 68 °F 57.2 °F 29.5 in East 7.5 mph 10.6 mph 65% 0 in 548.00 W/m2 unknown
13:34 68 °F 57.2 °F 29.5 in East 7.5 mph 11.8 mph 65% 0 in 469.00 W/m2 unknown
13:39 69.8 °F 57.2 °F 29.5 in ENE 8.1 mph 11.8 mph 65% 0 in 457.00 W/m2 unknown
13:44 69.8 °F 57.2 °F 29.5 in East 6.8 mph 11.8 mph 65% 0 in 612.00 W/m2 unknown
13:49 69.8 °F 57.2 °F 29.5 in ENE 6.8 mph 11.8 mph 64% 0 in 582.00 W/m2 unknown
13:54 69.8 °F 57.2 °F 29.5 in East 8.1 mph 11.8 mph 63% 0 in 573.00 W/m2 unknown
13:59 69.8 °F 57.2 °F 29.5 in East 8.7 mph 11.8 mph 63% 0 in 737.00 W/m2 unknown
14:04 69.8 °F 57.2 °F 29.5 in East 8.1 mph 11.8 mph 63% 0 in 809.00 W/m2 unknown
14:09 69.8 °F 57.2 °F 29.5 in ENE 8.7 mph 10.6 mph 62% 0 in 766.00 W/m2 unknown
14:14 69.8 °F 57.2 °F 29.5 in East 8.1 mph 10.6 mph 63% 0 in 708.00 W/m2 unknown
14:19 69.8 °F 57.2 °F 29.5 in ENE 6.2 mph 8.7 mph 62% 0 in 497.00 W/m2 unknown
14:24 69.8 °F 57.2 °F 29.5 in ENE 6.2 mph 8.7 mph 63% 0 in 729.00 W/m2 unknown
14:29 71.6 °F 57.2 °F 29.5 in ESE 6.8 mph 11.8 mph 63% 0 in 816.00 W/m2 unknown
14:34 71.6 °F 57.2 °F 29.5 in East 6.2 mph 11.8 mph 62% 0 in 793.00 W/m2 unknown
14:39 71.6 °F 57.2 °F 29.5 in East 6.8 mph 11.8 mph 62% 0 in 719.00 W/m2 unknown
14:44 69.8 °F 57.2 °F 29.5 in East 9.3 mph 11.8 mph 62% 0 in 719.00 W/m2 unknown
14:49 69.8 °F 57.2 °F 29.5 in East 8.1 mph 11.8 mph 63% 0 in 408.00 W/m2 unknown
14:54 69.8 °F 57.2 °F 29.5 in ESE 6.8 mph 8.7 mph 62% 0 in 415.00 W/m2 unknown
14:59 69.8 °F 57.2 °F 29.5 in East 6.8 mph 10.6 mph 63% 0 in 415.00 W/m2 unknown
15:04 69.8 °F 57.2 °F 29.5 in East 7.5 mph 10.6 mph 64% 0 in 271.00 W/m2 unknown
15:08 69.8 °F 57.2 °F 29.5 in ESE 6.2 mph 9.3 mph 63% 0 in 202.00 W/m2 unknown
15:14 69.8 °F 57.2 °F 29.5 in East 6.2 mph 9.3 mph 64% 0 in 199.00 W/m2 unknown
15:19 69.8 °F 57.2 °F 29.5 in East 5.6 mph 8.7 mph 64% 0 in 190.00 W/m2 unknown
15:24 69.8 °F 57.2 °F 29.5 in East 6.2 mph 8.1 mph 64% 0 in 176.00 W/m2 unknown
15:29 69.8 °F 57.2 °F 29.5 in East 4.3 mph 6.8 mph 65% 0 in 183.00 W/m2 unknown
15:34 69.8 °F 57.2 °F 29.5 in East 5 mph 6.8 mph 65% 0 in 248.00 W/m2 unknown
15:39 69.8 °F 59 °F 29.5 in East 3.7 mph 6.2 mph 65% 0 in 635.00 W/m2 unknown
15:44 71.6 °F 59 °F 29.5 in East 3.1 mph 6.2 mph 65% 0 in 635.00 W/m2 unknown
15:49 71.6 °F 57.2 °F 29.5 in East 4.3 mph 6.8 mph 62% 0 in 378.00 W/m2 unknown
15:54 71.6 °F 57.2 °F 29.5 in East 5 mph 6.8 mph 61% 0 in 566.00 W/m2 unknown
15:59 71.6 °F 57.2 °F 29.5 in East 5 mph 8.7 mph 61% 0 in 313.00 W/m2 unknown
16:04 71.6 °F 57.2 °F 29.5 in East 6.2 mph 9.3 mph 62% 0 in 350.00 W/m2 unknown
16:09 71.6 °F 57.2 °F 29.5 in East 6.8 mph 9.3 mph 62% 0 in 642.00 W/m2 unknown
16:14 71.6 °F 57.2 °F 29.5 in East 6.8 mph 9.3 mph 61% 0 in 619.00 W/m2 unknown
16:19 71.6 °F 57.2 °F 29.5 in ESE 7.5 mph 11.8 mph 60% 0 in 452.00 W/m2 unknown
16:24 71.6 °F 57.2 °F 29.5 in ESE 8.1 mph 11.8 mph 61% 0 in 434.00 W/m2 unknown
16:29 71.6 °F 57.2 °F 29.5 in ENE 6.8 mph 11.8 mph 61% 0 in 446.00 W/m2 unknown
16:34 71.6 °F 57.2 °F 29.5 in East 8.1 mph 11.8 mph 61% 0 in 422.00 W/m2 unknown
16:39 71.6 °F 57.2 °F 29.5 in East 8.1 mph 11.8 mph 60% 0 in 413.00 W/m2 unknown
16:44 71.6 °F 57.2 °F 29.5 in East 7.5 mph 11.8 mph 62% 0 in 385.00 W/m2 unknown
16:49 71.6 °F 57.2 °F 29.5 in ESE 5.6 mph 9.3 mph 60% 0 in 401.00 W/m2 unknown
16:54 71.6 °F 57.2 °F 29.5 in ESE 5.6 mph 8.7 mph 61% 0 in 378.00 W/m2 unknown
16:59 71.6 °F 57.2 °F 29.5 in East 7.5 mph 10.6 mph 61% 0 in 352.00 W/m2 unknown
17:04 71.6 °F 57.2 °F 29.5 in East 8.1 mph 10.6 mph 61% 0 in 332.00 W/m2 unknown
17:09 71.6 °F 57.2 °F 29.5 in East 6.8 mph 10.6 mph 63% 0 in 285.00 W/m2 unknown
17:14 69.8 °F 57.2 °F 29.5 in ESE 6.8 mph 9.9 mph 64% 0 in 285.00 W/m2 unknown
17:19 69.8 °F 57.2 °F 29.5 in East 5 mph 8.7 mph 64% 0 in 107.00 W/m2 unknown
17:24 69.8 °F 57.2 °F 29.5 in East 5 mph 6.8 mph 64% 0 in 118.00 W/m2 unknown
17:29 69.8 °F 57.2 °F 29.5 in ESE 5.6 mph 6.8 mph 65% 0 in 105.00 W/m2 unknown
17:34 69.8 °F 57.2 °F 29.5 in East 5 mph 6.8 mph 65% 0 in 100.00 W/m2 unknown
17:39 69.8 °F 57.2 °F 29.5 in East 4.3 mph 6.2 mph 66% 0 in 97.00 W/m2 unknown
17:44 69.8 °F 57.2 °F 29.5 in East 3.1 mph 6.2 mph 66% 0 in 91.00 W/m2 unknown
17:49 69.8 °F 57.2 °F 29.5 in East 3.1 mph 5 mph 66% 0 in 79.00 W/m2 unknown
17:54 68 °F 57.2 °F 29.5 in East 1.9 mph 5 mph 66% 0 in 128.00 W/m2 unknown
17:59 69.8 °F 57.2 °F 29.5 in ENE 4.3 mph 6.8 mph 67% 0 in 128.00 W/m2 unknown
18:04 68 °F 57.2 °F 29.5 in East 6.2 mph 8.1 mph 67% 0 in 139.00 W/m2 unknown
18:09 68 °F 57.2 °F 29.5 in ENE 6.2 mph 8.1 mph 67% 0 in 134.00 W/m2 unknown
18:14 68 °F 57.2 °F 29.5 in ENE 5 mph 8.1 mph 67% 0 in 54.00 W/m2 unknown
18:19 68 °F 57.2 °F 29.5 in ENE 5 mph 8.1 mph 68% 0 in 35.00 W/m2 unknown
18:24 68 °F 57.2 °F 29.5 in ENE 5.6 mph 8.1 mph 70% 0 in 23.00 W/m2 unknown
18:29 68 °F 57.2 °F 29.5 in ENE 5.6 mph 8.1 mph 69% 0 in 16.00 W/m2 unknown
18:34 66.2 °F 57.2 °F 29.5 in East 5 mph 8.1 mph 71% 0 in 12.00 W/m2 unknown
18:39 66.2 °F 57.2 °F 29.5 in ENE 5 mph 6.8 mph 71% 0 in 14.00 W/m2 unknown
18:44 66.2 °F 57.2 °F 29.5 in ENE 5.6 mph 6.8 mph 71% 0 in 14.00 W/m2 unknown
18:49 66.2 °F 57.2 °F 29.5 in ENE 5.6 mph 6.8 mph 72% 0 in 12.00 W/m2 unknown
18:54 66.2 °F 57.2 °F 29.5 in ENE 5 mph 8.1 mph 72% 0 in 11.00 W/m2 unknown
18:59 66.2 °F 55.4 °F 29.5 in ENE 5 mph 8.1 mph 72% 0 in 7.00 W/m2 unknown
19:04 66.2 °F 55.4 °F 29.5 in ENE 5 mph 8.1 mph 73% 0 in 5.00 W/m2 unknown
19:09 64.4 °F 55.4 °F 29.5 in ENE 5 mph 9.3 mph 73% 0 in 0.00 W/m2 unknown
19:14 64.4 °F 55.4 °F 29.5 in ENE 6.2 mph 9.3 mph 73% 0 in 0.00 W/m2 unknown
19:19 64.4 °F 55.4 °F 29.5 in ENE 6.2 mph 9.3 mph 73% 0 in 0.00 W/m2 unknown
19:24 64.4 °F 55.4 °F 29.5 in NE 6.2 mph 6.8 mph 73% 0 in 0.00 W/m2 unknown
19:29 64.4 °F 55.4 °F 29.5 in ENE 5.6 mph 8.7 mph 74% 0 in 0.00 W/m2 unknown
19:34 64.4 °F 55.4 °F 29.5 in ENE 6.2 mph 11.2 mph 74% 0 in 0.00 W/m2 unknown
19:39 62.6 °F 55.4 °F 29.5 in ENE 6.2 mph 11.8 mph 75% 0 in 0.00 W/m2 unknown
19:44 62.6 °F 55.4 °F 29.5 in ENE 6.2 mph 11.8 mph 75% 0 in 0.00 W/m2 unknown
19:49 62.6 °F 55.4 °F 29.5 in ENE 6.8 mph 10.6 mph 75% 0 in 0.00 W/m2 unknown
19:54 62.6 °F 55.4 °F 29.5 in ENE 6.8 mph 8.1 mph 75% 0 in 0.00 W/m2 unknown
19:59 62.6 °F 55.4 °F 29.5 in ENE 6.2 mph 8.1 mph 75% 0 in 0.00 W/m2 unknown
20:04 62.6 °F 55.4 °F 29.5 in ENE 5 mph 6.2 mph 76% 0 in 0.00 W/m2 unknown
20:09 62.6 °F 55.4 °F 29.5 in East 5.6 mph 9.3 mph 76% 0 in 0.00 W/m2 unknown
20:14 62.6 °F 53.6 °F 29.5 in ENE 5.6 mph 9.3 mph 76% 0 in 0.00 W/m2 unknown
20:19 62.6 °F 53.6 °F 29.5 in ENE 5 mph 8.7 mph 77% 0 in 0.00 W/m2 unknown
20:24 62.6 °F 53.6 °F 29.5 in ENE 3.1 mph 6.8 mph 77% 0 in 0.00 W/m2 unknown
20:29 60.8 °F 53.6 °F 29.5 in ENE 3.7 mph 6.8 mph 78% 0 in 0.00 W/m2 unknown
20:34 60.8 °F 53.6 °F 29.5 in ENE 3.1 mph 6.2 mph 78% 0 in 0.00 W/m2 unknown
20:39 60.8 °F 53.6 °F 29.5 in ENE 3.1 mph 3.7 mph 78% 0 in 0.00 W/m2 unknown
20:44 60.8 °F 53.6 °F 29.5 in East 3.1 mph 5 mph 79% 0 in 0.00 W/m2 unknown
20:49 60.8 °F 53.6 °F 29.5 in East 3.7 mph 6.2 mph 79% 0 in 0.00 W/m2 unknown
20:54 60.8 °F 53.6 °F 29.5 in East 4.3 mph 6.2 mph 79% 0 in 0.00 W/m2 unknown
20:59 60.8 °F 53.6 °F 29.5 in ENE 3.1 mph 5 mph 79% 0 in 0.00 W/m2 unknown
21:04 60.8 °F 53.6 °F 29.5 in East 3.7 mph 5 mph 79% 0 in 0.00 W/m2 unknown
21:09 60.8 °F 53.6 °F 29.5 in ENE 3.7 mph 6.2 mph 79% 0 in 0.00 W/m2 unknown
21:14 60.8 °F 53.6 °F 29.5 in ENE 4.3 mph 6.2 mph 79% 0 in 0.00 W/m2 unknown
21:19 60.8 °F 53.6 °F 29.5 in ENE 3.7 mph 6.2 mph 79% 0 in 0.00 W/m2 unknown
21:24 60.8 °F 53.6 °F 29.5 in ENE 3.7 mph 6.2 mph 79% 0 in 0.00 W/m2 unknown
21:29 60.8 °F 53.6 °F 29.5 in ENE 4.3 mph 6.2 mph 79% 0 in 0.00 W/m2 unknown
21:34 60.8 °F 53.6 °F 29.5 in ENE 3.1 mph 6.2 mph 79% 0 in 0.00 W/m2 unknown
21:39 59 °F 53.6 °F 29.5 in ENE 3.7 mph 5 mph 79% 0 in 0.00 W/m2 unknown
21:44 59 °F 53.6 °F 29.5 in ENE 3.7 mph 5 mph 79% 0 in 0.00 W/m2 unknown
21:49 59 °F 53.6 °F 29.5 in ENE 4.3 mph 5 mph 79% 0 in 0.00 W/m2 unknown
21:54 59 °F 53.6 °F 29.5 in ENE 5 mph 6.8 mph 79% 0 in 0.00 W/m2 unknown
21:59 59 °F 53.6 °F 29.5 in ENE 3.7 mph 6.8 mph 80% 0 in 0.00 W/m2 unknown
22:04 59 °F 53.6 °F 29.5 in ENE 3.1 mph 5 mph 80% 0 in 0.00 W/m2 unknown
22:09 59 °F 53.6 °F 29.5 in ENE 3.1 mph 5 mph 80% 0 in 0.00 W/m2 unknown
22:14 59 °F 53.6 °F 29.5 in ENE 3.7 mph 5 mph 80% 0 in 0.00 W/m2 unknown
22:19 59 °F 53.6 °F 29.5 in ENE 3.1 mph 5 mph 80% 0 in 0.00 W/m2 unknown
22:24 59 °F 53.6 °F 29.5 in ENE 3.1 mph 5 mph 81% 0 in 0.00 W/m2 unknown
22:29 59 °F 53.6 °F 29.5 in East 2.5 mph 5 mph 81% 0 in 0.00 W/m2 unknown
22:34 59 °F 53.6 °F 29.5 in East 2.5 mph 5 mph 81% 0 in 0.00 W/m2 unknown
22:39 59 °F 53.6 °F 29.5 in East 2.5 mph 5 mph 82% 0 in 0.00 W/m2 unknown
22:44 59 °F 53.6 °F 29.5 in East 2.5 mph 3.7 mph 82% 0 in 0.00 W/m2 unknown
22:49 59 °F 53.6 °F 29.5 in East 1.9 mph 3.7 mph 82% 0 in 0.00 W/m2 unknown
22:54 57.2 °F 51.8 °F 29.5 in East 1.9 mph 3.7 mph 82% 0 in 0.00 W/m2 unknown
22:59 57.2 °F 53.6 °F 29.5 in East 1.9 mph 3.7 mph 83% 0 in 0.00 W/m2 unknown
23:04 57.2 °F 53.6 °F 29.5 in East 1.9 mph 3.7 mph 83% 0 in 0.00 W/m2 unknown
23:09 57.2 °F 53.6 °F 29.5 in East 2.5 mph 5 mph 83% 0 in 0.00 W/m2 unknown
23:14 57.2 °F 51.8 °F 29.5 in East 3.7 mph 5 mph 83% 0 in 0.00 W/m2 unknown
23:19 57.2 °F 53.6 °F 29.5 in East 3.1 mph 5 mph 83% 0 in 0.00 W/m2 unknown
23:24 57.2 °F 53.6 °F 29.5 in East 3.1 mph 3.7 mph 83% 0 in 0.00 W/m2 unknown
23:29 57.2 °F 53.6 °F 29.5 in ENE 1.9 mph 3.1 mph 83% 0 in 0.00 W/m2 unknown
23:34 57.2 °F 51.8 °F 29.5 in NNE 1.9 mph 3.7 mph 84% 0 in 0.00 W/m2 unknown
23:39 57.2 °F 51.8 °F 29.5 in NNE 1.9 mph 3.7 mph 84% 0 in 0.00 W/m2 unknown
23:44 57.2 °F 51.8 °F 29.5 in NNE 1.2 mph 3.1 mph 84% 0 in 0.00 W/m2 unknown
23:49 57.2 °F 51.8 °F 29.5 in NNE 1.2 mph 2.5 mph 84% 0 in 0.00 W/m2 unknown
23:54 57.2 °F 51.8 °F 29.5 in NE 1.2 mph 2.5 mph 85% 0 in 0.00 W/m2 unknown
23:59 57.2 °F 51.8 °F 29.5 in NE 1.2 mph 2.5 mph 85% 0 in 0.00 W/m2 unknown
Stazione Meteorologica MeteoMincio Rivalta s/M (MN)
Con i complimenti di Weather Underground - 4 mb



METEO PILLOLE
Temperatura più bassa in pianura in Italia
S.Pietro Capofiume - Bologna
-29°C il 13 Gennaio 1985.
Share

Non seguire questo link o sarai bannato dal sito!